Flag for Germany Weather past 2 weeks in Westerstede, Lower Saxony, Germany

Now
54 °F

Partly cloudy.


Feels Like: 53 °F
Forecast: 46 / 56 °F
Wind: 3 mph from Southwest

Location: Wittmundhaven

Current Time: May 25, 2015 at 2:20:58 AM

Latest Report: May 25, 2015 at 1:20 AM


Visibility: N/A

Pressure: 29.98 "Hg

Humidity: 82%

Dew point: 48 °F

Location of WesterstedeLocation

Historic Weather in Westerstede — Graph

°F

Westerstede temperature yesterday

Maximum temperature yesterday: 61 °F (at 3:20 PM)
Minimum temperature yesterday: 46 °F (at 2:20 AM)
Average temperature yesterday: 52 °F

Past Weeks' High & Low Weather Summary

 TemperatureHumidityPressure
High75 °F (May 11, 4:20 PM)94% (May 12, 2:20 AM)30.33 "Hg (May 12, 2:20 AM)
Low37 °F (May 15, 3:20 AM)36% (May 10, 4:20 PM)29.53 "Hg (May 18, 9:20 PM)
Average51 °F73%30.04 "Hg
* Reported May 10 12:20 AM — May 25 12:20 AM, Westerstede, Weather by CustomWeather, © 2015

Note: Actual official high and low records may vary slightly from our data, if they occured in-between our weather recording intervals... More about our weather records

Advertising

Westerstede weather history for previous 24 hours

 ConditionsComfort  
Time TempWeatherWind HumidityBarometerVisibility
12:20 AM
Mon, May 25
54 °FPartly cloudy.2 mph77%30.01 "HgN/A
11:20 PM
Sun, May 24
54 °FPassing clouds.2 mph77%30.01 "HgN/A
10:20 PM52 °FPartly sunny.3 mph82%30.01 "HgN/A
9:20 PM54 °FPassing clouds.2 mph72%30.01 "HgN/A
8:20 PM55 °FPassing clouds.5 mph67%30.04 "HgN/A
7:20 PM57 °FPassing clouds.6 mph63%30.04 "HgN/A
6:20 PM59 °FScattered clouds.7 mph63%30.04 "HgN/A
5:20 PM59 °FScattered clouds.7 mph63%30.04 "HgN/A
4:20 PM57 °FPassing clouds.12 mph67%30.07 "HgN/A
3:20 PM61 °FPassing clouds.7 mph48%30.07 "HgN/A
2:20 PM59 °FPassing clouds.8 mph51%30.09 "HgN/A
1:20 PM57 °FPassing clouds.6 mph55%30.09 "HgN/A
12:20 PM55 °FScattered clouds.5 mph59%30.12 "HgN/A
11:20 AM54 °FPartly sunny.6 mph63%30.15 "HgN/A
10:20 AM52 °FPartly sunny.3 mph62%30.15 "HgN/A
9:20 AM48 °FPartly sunny.6 mph71%30.15 "HgN/A
8:20 AM48 °FPartly sunny.7 mph71%30.15 "HgN/A
7:20 AM48 °FPartly sunny.2 mph66%30.15 "HgN/A
6:20 AM46 °FPartly sunny.3 mph76%30.18 "HgN/A
5:20 AM46 °FPassing clouds.5 mph82%30.18 "HgN/A
4:20 AM46 °FPassing clouds.3 mph82%30.15 "HgN/A
3:20 AM46 °FPassing clouds.1 mph82%30.18 "HgN/A
2:20 AM46 °FPassing clouds.2 mph76%30.18 "HgN/A
Weather by CustomWeather, © 2015

See weather overviewHow to use our weather pages